FW1418 Weather Reports


Display with metric or nautical units.
time (UTC)temp
F
wind
direction
speed
MPH
gust
MPH
rain 1hr
in
rain 24hr
in
rain mn
in
humidity
%
barometer
mb
20260905051511 69 123 3.0 7.0 0.00 0.00 0.00 94 1015.1
20260905050015 69 154 0.0 7.0 0.00 0.00 0.00 94 1015.2
20260905044509 69 144 2.0 5.0 0.00 0.00 0.00 95 1015.1
20260905043007 69 153 0.0 3.0 0.00 0.00 0.00 94 1015.1
20260905041507 69 155 1.0 5.0 0.00 0.00 0.00 94 1014.9
20260905040004 69 210 4.0 10.0 0.00 0.00 0.00 94 1014.9
20260905034504 69 128 1.0 7.0 0.00 0.00 0.00 94 1015.0
20260905033003 69 148 2.0 5.0 0.00 0.00 0.00 94 1015.1
20260905031506 70 133 4.0 8.0 0.00 0.00 0.00 95 1015.2
20260905030003 70 127 3.0 4.0 0.00 0.00 0.00 95 1015.2
20260905024502 70 129 1.0 2.0 0.00 0.00 0.00 96 1015.2
20260905023004 70 157 1.0 6.0 0.00 0.00 0.00 96 1015.2
20260905021501 70 126 2.0 6.0 0.00 0.00 0.00 96 1015.0
20260905020109 70 134 2.0 8.0 0.00 0.00 0.00 95 1015.1
20260905014613 70 130 4.0 8.0 0.00 0.00 0.00 96 1015.0
20260905013103 71 105 3.0 8.0 0.00 0.00 0.00 96 1015.2
20260905011610 71 115 4.0 8.0 0.00 0.00 0.00 97 1015.0
20260905010058 71 132 0.0 5.0 0.00 0.00 0.00 97 1015.0
20260905004558 71 113 2.0 4.0 0.00 0.00 0.00 98 1014.8
20260905003057 71 112 2.0 6.0 0.00 0.00 0.00 98 1014.8
20260905001557 71 132 1.0 7.0 0.00 0.00 0.00 98 1014.7
20260905000057 71 111 2.0 6.0 0.00 0.00 0.00 97 1014.7
20260904234558 71 134 3.0 7.0 0.00 0.00 0.00 97 1014.8
20260904233056 71 71 3.0 7.0 0.00 0.00 0.00 97 1014.8
20260904231556 71 113 2.0 6.0 0.00 0.00 0.00 98 1014.4
20260904230055 71 109 1.0 4.0 0.00 0.00 0.00 97 1014.3
20260904224605 72 113 2.0 4.0 0.00 0.00 0.00 96 1014.1
20260904223054 72 107 1.0 4.0 0.00 0.00 0.00 95 1014.0
20260904221559 72 107 1.0 4.0 0.00 0.00 0.00 96 1014.1
20260904220056 72 126 0.0 2.0 0.00 0.00 0.00 97 1013.9
20260904214552 72 126 0.0 0.0 0.00 0.00 0.00 97 1013.9
20260904213052 72 126 0.0 1.0 0.00 0.00 0.00 97 1014.0
20260904211554 72 126 0.0 2.0 0.00 0.00 0.00 97 1014.0
20260904210054 73 126 0.0 2.0 0.00 0.00 0.00 96 1014.1
20260904204550 73 126 0.0 1.0 0.00 0.00 0.00 96 1014.1
20260904203050 73 126 0.0 0.0 0.00 0.00 0.00 95 1014.0
20260904201604 73 126 0.0 0.0 0.00 0.00 0.00 95 1014.2
20260904200049 73 126 0.0 1.0 0.00 0.00 0.00 96 1014.2
20260904194602 73 126 0.0 1.0 0.00 0.00 0.00 95 1014.1
20260904193048 73 126 0.0 2.0 0.00 0.00 0.00 95 1014.1
20260904191554 73 138 2.0 4.0 0.00 0.00 0.00 95 1014.1
20260904190046 73 128 1.0 3.0 0.00 0.10 0.00 95 1013.9
20260904184545 73 128 2.0 6.0 0.00 0.10 0.00 94 1013.9
20260904183045 73 126 3.0 5.0 0.00 0.10 0.00 94 1014.0
20260904181545 74 100 4.0 7.0 0.00 0.10 0.00 94 1013.8
20260904180044 74 95 2.0 4.0 0.00 0.10 0.00 94 1013.8
20260904174547 74 105 3.0 6.0 0.00 0.10 0.00 93 1013.9
20260904173102 73 94 2.0 6.0 0.00 0.10 0.00 94 1014.1
20260904171555 74 94 2.0 6.0 0.00 0.10 0.00 93 1014.2
20260904170042 74 130 1.0 5.0 0.00 0.10 0.00 94 1014.3
20260904164538 74 134 1.0 5.0 0.00 0.10 0.00 94 1014.2
20260904163035 73 141 3.0 5.0 0.00 0.10 0.00 96 1014.2
20260904161534 72 150 1.0 8.0 0.00 0.10 0.00 97 1014.2
20260904160030 71 113 2.0 7.0 0.00 0.10 0.00 98 1014.3
20260904154527 71 138 1.0 4.0 0.00 0.10 0.00 99 1014.2
20260904153029 70 112 5.0 9.0 0.00 0.10 0.00 99 1014.5
20260904151525 70 120 4.0 7.0 0.00 0.10 0.00 99 1014.8
20260904150037 70 119 1.0 4.0 0.00 0.10 0.00 100 1015.1
20260904144522 70 121 1.0 4.0 0.00 0.10 0.00 100 1014.9
20260904143023 70 140 1.0 4.0 0.00 0.10 0.00 100 1014.8
20260904141522 69 141 1.0 2.0 0.00 0.10 0.00 100 1014.7
20260904140020 69 140 0.0 3.0 0.00 0.10 0.00 100 1014.8
20260904134538 69 140 0.0 3.0 0.00 0.10 0.00 100 1015.1
20260904133019 69 140 0.0 2.0 0.00 0.10 0.00 100 1014.9
20260904131522 69 140 1.0 7.0 0.00 0.10 0.00 100 1014.3
20260904130030 69 119 2.0 8.0 0.00 0.10 0.00 100 1014.2
20260904124516 69 110 2.0 5.0 0.00 0.10 0.00 100 1014.3
20260904123016 69 173 1.0 6.0 0.00 0.10 0.00 100 1014.2
20260904121515 69 136 2.0 5.0 0.00 0.10 0.00 100 1014.3
20260904120018 68 138 1.0 5.0 0.00 0.10 0.00 100 1014.1
20260904114528 69 66 1.0 4.0 0.00 0.10 0.00 100 1014.4
20260904113012 68 58 0.0 2.0 0.00 0.10 0.00 100 1013.2
20260904111523 68 14 0.0 2.0 0.00 0.10 0.00 100 1014.1
20260904110011 68 336 0.0 2.0 0.00 0.10 0.00 100 1014.7
20260904104511 68 336 0.0 3.0 0.00 0.10 0.00 100 1014.9
20260904103011 68 336 0.0 2.0 0.00 0.10 0.00 100 1014.8
20260904101510 68 336 0.0 2.0 0.00 0.10 0.00 100 1014.7
20260904100010 68 336 0.0 2.0 0.00 0.10 0.00 100 1014.0
20260904094518 68 336 0.0 2.0 0.00 0.10 0.00 100 1014.2
20260904093007 67 336 0.0 1.0 0.00 0.10 0.00 100 1014.5
20260904091505 67 336 0.0 1.0 0.00 0.10 0.00 100 1013.9
20260904090004 67 336 0.0 2.0 0.00 0.10 0.00 100 1014.1
20260904084505 66 336 1.0 2.0 0.00 0.10 0.00 100 1013.9
20260904083002 66 336 0.0 2.0 0.00 0.10 0.00 100 1013.3
20260904081559 66 336 0.0 2.0 0.00 0.10 0.00 100 1013.3
20260904080058 66 336 0.0 2.0 0.00 0.10 0.00 100 1013.6
20260904074558 65 336 0.0 2.0 0.00 0.10 0.00 100 1013.4
20260904073056 65 336 1.0 2.0 0.00 0.10 0.00 100 1013.6
20260904071555 65 336 1.0 2.0 0.00 0.10 0.00 100 1014.2
20260904070058 65 336 0.0 2.0 0.00 0.10 0.00 100 1013.9
20260904064552 65 336 0.0 2.0 0.00 0.10 0.00 100 1014.3
20260904063056 65 336 0.0 2.0 0.00 0.10 0.00 99 1014.3
20260904061551 65 336 1.0 2.0 0.00 0.10 0.00 99 1014.2
20260904060051 65 336 1.0 2.0 0.00 0.10 0.00 99 1014.1
20260904054551 65 336 1.0 3.0 0.00 0.10 0.00 98 1014.5
20260904053047 66 336 0.0 3.0 0.00 0.10 0.00 98 1014.7